Regional Weather Roundup
Issued by NWS

Home | Current Version | Previous Version | Graphics & Text | Print | Product List | Glossary On
Versions: 1 2 3 4 5 6 7 8 9 10 11 12 13 14 15 16 17 18 19 20 21 22 23 24 25 26 27 28 29 30 31 32 33 34 35 36 37 38 39 40 41 42 43 44 45 46 47 48 49 50
000
ASUS43 KMPX 200210
RWRMN
WEATHER ROUNDUP FOR MINNESOTA
NATIONAL WEATHER SERVICE TWIN CITIES/CHANHASSEN MN
900 PM CDT WED JUL 19 2017


NOTE: "FAIR" INDICATES FEW OR NO CLOUDS BELOW 12,000 FEET WITH NO
SIGNIFICANT WEATHER AND/OR OBSTRUCTIONS TO VISIBILITY. N/A MEANS
CURRENT SKY AND/OR WEATHER CONDITIONS ARE NOT AVAILABLE.

MNZ060>063-068>070-200300-
   Twin Cities Metro

CITY           SKY/WX    TMP DP  RH WIND       PRES   REMARKS
TWIN CITIES    MOCLDY    72  66  81 E3        29.91S
ST PAUL        CLOUDY    70  68  93 S7        29.93R
CRYSTAL        CLOUDY    71  63  75 CALM      29.89F
BLAINE         MOCLDY    72  66  83 CALM      29.90F
LAKEVILLE      CLOUDY    70  70 100 N7        29.92R THUNDER
EDEN PRAIRIE   TSTM      71  68  90 NW3       29.89F VSB 1/2
SOUTH ST PAUL  MOCLDY    71  68  92 CALM      29.92R
LAKE ELMO      FAIR      68  66  94 E3        29.92F
$$
MNZ001>005-007-008-013>017-022>024-027-028-200300-
   Northwest Minnesota

CITY           SKY/WX    TMP DP  RH WIND       PRES   REMARKS
BEMIDJI        CLEAR     73  63  70 SW5       29.91S
HALLOCK        CLEAR     73  68  83 NW5       29.85R
ROSEAU         CLEAR     73  66  78 CALM      29.86S
WARROAD        PTCLDY    72  66  83 W3        29.86S
THIEF RVR FALL CLEAR     73  66  78 SW6       29.88R
CROOKSTON      CLEAR     73  70  88 SW6       29.87R
FOSSTON        CLEAR     72  64  78 S8        29.90S
DETROIT LAKES  CLEAR     72  64  78 S5        29.94S
MOORHEAD       CLEAR     79  66  65 S3        29.90S
PARK RAPIDS    CLEAR     72  63  73 S6        29.93S
MAHNOMEN       FAIR      71  66  84 S7        29.91S
$$
MNZ006-009>011-018-025>026-200300-
   North Central Minnesota

CITY           SKY/WX    TMP DP  RH WIND       PRES   REMARKS
BAUDETTE       CLOUDY    71  62  73 S5        29.86S
FLAG ISLAND    MOCLDY    70  64  83 CALM      29.84R
INTL FALLS     CLOUDY    67  60  78 S3        29.88S
WASKISH        CLEAR     72  64  78 CALM      29.88S
BIG FORK       CLEAR     68  59  73 CALM      29.90F
LONGVILLE      CLEAR     70  59  68 S5        29.93S
GRAND RAPIDS   CLEAR     68  58  70 S6        29.95F
CRANE LAKE     CLOUDY    64  63  94 CALM      29.92S
ORR            PTCLDY    66  57  72 SE3       29.89S
COOK           PTCLDY    70  61  73 CALM      29.92F
WALKER         FAIR      72  62  70 S3        29.92S
$$
MNZ012-019>021-037-200300-
   Northeast Minnesota

CITY           SKY/WX    TMP DP  RH WIND       PRES   REMARKS
DULUTH         PTCLDY    68  62  81 SE3       29.94F
ELY            CLOUDY    70  57  64 CALM      29.93F
HIBBING        CLEAR     68  58  70 CALM      29.92F
EVELETH        CLEAR     66  57  72 SE3       29.94F
DULUTH HARBOR  CLEAR     66  61  82 NE7       29.93F
TWO HARBORS    CLOUDY    68  63  83 CALM      29.92F
SILVER BAY     CLOUDY    64  61  88 CALM      29.93S
GRAND MARAIS     N/A     62  55  77 NE5       29.93F
G MARAIS ARPRT CLOUDY    63  54  72 CALM      29.99R
$$
MNZ029>031-032-039>041-046>048-054>057-064-200300-
   West Central Minnesota

CITY           SKY/WX    TMP DP  RH WIND       PRES   REMARKS
FERGUS FALLS   CLEAR     73  68  83 S3        29.92S
WHEATON        MOCLDY    75  68  78 NE3       29.94S
MORRIS         CLOUDY    73  68  83 CALM      29.92R
ALEXANDRIA     MOCLDY    72  65  78 NE5       29.96S
ELBOW LAKE     MOCLDY    74  67  80 NE3       29.94S
WADENA         CLEAR     72  66  83 S3        29.94S
GLENWOOD       PTCLDY    72  66  83 NE5       29.95S
APPLETON       PTCLDY    75  70  83 NE3       29.91R
BENSON         MOCLDY    73  66  78 CALM      29.93S
ORTONVILLE     CLOUDY    75  70  83 N3        29.92R
MADISON        PTCLDY    79  72  78 SE3       29.90F
WILLMAR        LGT RAIN  75  70  83 E3        29.93S
$$
MNZ033>034-036-042>043-049>051-058-059-200300-
   Central Minnesota

CITY           SKY/WX    TMP DP  RH WIND       PRES   REMARKS
ST CLOUD       CLOUDY    71  66  84 CALM      29.93F
SAUK CENTRE    CLOUDY    71  65  79 CALM      29.94S
PAYNESVILLE    CLOUDY    72  65  80 NE3       29.94S
AITKIN         CLEAR     68  59  73 S3        29.93S
PINE RIVER     CLEAR     72  63  73 S3        29.97S
BRAINERD       PTCLDY    70  62  76 S3        29.94F
STAPLES        PTCLDY    72  63  73 S6        29.94F
LONG PRAIRIE   FAIR      70  63  78 CALM      29.95S
LITTLE FALLS   CLEAR     68  61  77 CALM      29.94F
LITCHFIELD     PTCLDY    72  70  94 CALM      29.93S
BUFFALO        PTCLDY    70  64  83 CALM      29.93S
MAPLE LAKE     CLOUDY    71  67  88 CALM      29.93S
HUTCHINSON     MOCLDY    72  70  92 NW6       29.92S
$$
MNZ037-044-045-052-053-200300-
   East Central Minnesota

CITY           SKY/WX    TMP DP  RH WIND       PRES   REMARKS
PRINCETON      CLOUDY    72  64  78 CALM      29.93F
MORA           CLOUDY    66  61  82 CALM      29.96S
CAMBRIDGE      CLOUDY    73  61  64 CALM      29.90F
RUSH CITY      CLOUDY    68  62  80 CALM      29.93F
MOOSE LAKE     CLOUDY    68  63  83 CALM      29.92S
HINCKLEY       FAIR      70  66  88 CALM      29.93F
CLOQUET        CLEAR     72  57  60 CALM      29.94F
MCGREGOR       PTCLDY    70  59  68 S3        29.94F
$$
MNZ071>073-080-081-089-090-097-098-200300-
   Southwest Minnesota

CITY           SKY/WX    TMP DP  RH WIND       PRES   REMARKS
MONTEVIDEO     PTCLDY    75  66  73 CALM      29.91S
GRANITE FALLS  CLOUDY    76  70  81 SE5       29.91S
CANBY          CLOUDY    76  70  82 CALM      29.92R
MARSHALL       CLOUDY    75  70  84 E5        29.91R
REDWOOD FALLS  CLOUDY    73  68  84 E3        29.89S
OLIVIA         CLOUDY    73  70  88 CALM      29.90F
PIPESTONE      CLOUDY    77  68  73 E5        29.91R
WINDOM         CLOUDY    73  66  78 CALM      29.91R
WORTHINGTON    CLOUDY    75  69  81 SE5       29.91F
JACKSON        CLOUDY    73  68  83 CALM      29.91S
TRACY          PTCLDY    75  73  91 CALM      29.91S
SLAYTON        HVY RAIN  73  67  81 E3        29.92S
$$
MNZ065>067-074>077-082>085-091>093-200300-
   South Central Minnesota

CITY           SKY/WX    TMP DP  RH WIND       PRES   REMARKS
MANKATO        PTCLDY    70  67  90 SE3       29.89F
NEW ULM        CLOUDY    72  66  83 CALM      29.89F
ST JAMES       CLOUDY    72  66  83 CALM      29.90F
FAIRMONT       CLOUDY    73  68  84 S3        29.90F
GLENCOE        CLOUDY    72  70  94 CALM      29.89F
FARIBAULT      MOCLDY    70  66  88 S3        29.90F
OWATONNA       CLOUDY    72  66  83 SE7       29.90F
WASECA         CLOUDY    72  68  88 SE5       29.91F
ALBERT LEA     PTCLDY    70  68  94 SE5       29.92S
$$
MNZ078>079-086>088-094>096-200300-
   Southeast Minnesota

CITY           SKY/WX    TMP DP  RH WIND       PRES   REMARKS
ROCHESTER      PTCLDY    67  67 100 SE7       29.94S
RED WING       RAIN      70  66  88 NE7G21    29.88F
STANTON        CLOUDY    71  66  86 S5        29.87F
DODGE CENTER   CLOUDY    66  66 100 S3        29.93S
WINONA         CLOUDY    70  66  88 CALM      29.91F THUNDER
AUSTIN         CLOUDY    70  66  88 CALM      29.87F
PRESTON        MOCLDY    66  64  95 S7        29.94F
$$
ABBREVIATIONS USED IN REMARKS
   TC - TEMPERATURES IN CELSIUS
  WCI - WIND CHILL INDEX
   HX - HEAT INDEX
  VSB - VISIBILITY
$$



USA.gov is the U.S. government's official web portal to all federal, state and local government web resources and services.